Location: Cole Spring
(36.9850°N, 119.2798°W)
Time: 00:03:34
(UTC+00:00)

Daily predictions for brighter satellites

Satellite Brightness Start Highest point End
(mag) Time Altitude Azimuth Time Altitude Azimuth Time Altitude Azimuth
MOS 1 4.3 03:39:54 10° SSE 03:45:35 80° ENE 03:51:18 10° N
STARLINK-1079 4.3 03:41:55 10° WNW 03:45:56 50° SW 03:49:55 10° SSE
Cosmos 1850 Rocket 4.3 03:42:44 10° N 03:48:02 58° ENE 03:53:15 10° SSE
VEP-3 4.3 03:46:15 10° SSW 03:50:01 14° S 03:53:05 10° SE
ASTEX 1 3.8 03:45:34 10° S 03:50:26 69° W 03:55:22 10° N
STARLINK-1116 4.4 03:46:56 10° WNW 03:50:53 45° SW 03:54:49 10° SSE
DMSP B5D2-2 4.1 03:46:29 10° NNE 03:51:44 66° ESE 03:56:56 10° S
Cosmos 1331 Rocket 4.1 03:47:30 10° S 03:52:30 55° ESE 03:57:33 10° NNE
MONITOR-E 3.7 03:52:19 10° S 03:54:51 78° W 03:57:23 10° NNW
USA 186 2.6 03:53:14 10° S 03:55:46 42° W 03:58:33 10° NNW
BREEZE-M DEB (TANK) 4.0 03:54:04 10° WNW 03:56:02 24° SW 03:58:18 10° SSE
CZ-2C R/B 4.2 03:51:24 10° S 03:56:48 50° W 04:02:25 10° NNW
STARLINK-1101 4.5 03:54:14 10° NW 03:58:10 41° NE 04:02:04 10° ESE
Cosmos 2279 Rocket 4.1 03:53:11 10° N 03:59:22 63° E 04:05:28 10° SSE
SL-8 R/B 4.3 03:57:06 10° NW 04:01:46 49° NNE 04:06:25 10° ESE
STARLINK-29 3.2 03:59:14 10° SW 04:02:27 75° NW 04:05:41 10° NE
STARLINK-1102 4.3 03:59:10 10° NW 04:03:10 45° NE 04:06:51 12° ESE
STARLINK-1111 4.2 04:04:08 10° NW 04:08:10 50° NE 04:11:39 13° ESE
Intercosmos 24 4.0 04:05:27 10° N 04:09:10 70° E 04:14:01 10° SSE
SL-4 R/B 3.2 04:05:06 10° WSW 04:09:35 55° NW 04:14:19 10° NE
deb Kosmos-1763 4.2 04:06:20 10° N 04:09:53 56° ENE 04:12:50 14° SSE
CENTAUR R/B 4.4 04:05:16 10° NNW 04:12:07 29° NE 04:19:27 10° E
SPOT 3 Rocket 3.5 04:07:04 10° SSE 04:12:12 77° ENE 04:17:22 10° N
STARLINK-1073 4.0 04:09:05 10° NW 04:13:10 55° NE 04:16:26 15° ESE
ASTRO E2 4.0 04:10:12 10° WSW 04:13:28 25° SSW 04:15:51 15° SSE
ISS -1.2 04:13:24 10° W 04:15:12 14° SW 04:16:58 10° SSW
STARLINK-1320 3.6 04:13:53 10° SSW 04:16:39 30° SE 04:19:26 10° ENE
STARLINK-1322 3.6 04:14:14 10° SSW 04:17:00 30° SE 04:19:48 10° ENE
STARLINK-1324 3.6 04:14:33 10° SSW 04:17:20 31° SE 04:20:07 10° ENE
STARLINK-1294 3.6 04:14:52 10° SSW 04:17:38 31° SE 04:20:25 10° ENE
Cosmos 1437 Rocket 3.3 04:14:07 10° SSW 04:17:51 59° W 04:21:39 10° N
ARGOS 4.4 04:12:54 10° SSW 04:17:56 40° W 04:23:00 10° NNW
STARLINK-1261 3.6 04:15:13 10° SSW 04:18:01 31° SE 04:20:49 10° ENE
STARLINK-1362 4.5 04:14:43 10° S 04:18:07 26° SE 04:21:31 10° ENE
COSMOS 2455 4.2 04:15:31 14° SE 04:18:08 18° ESE 04:22:02 10° ENE
STARLINK-1121 3.9 04:14:02 10° NW 04:18:08 60° NE 04:21:12 17° ESE
STARLINK-1325 3.6 04:15:33 10° SSW 04:18:21 31° SE 04:21:10 10° ENE
H-2A R/B 3.8 04:14:09 10° SSW 04:18:35 30° W 04:23:09 10° NW
STARLINK-1333 3.5 04:15:55 10° SSW 04:18:43 32° SE 04:21:32 10° ENE
STARLINK-1334 3.5 04:16:12 10° SSW 04:19:00 32° SE 04:21:50 10° ENE
STARLINK-1326 3.5 04:16:30 10° SSW 04:19:19 32° SE 04:22:10 10° ENE
STARLINK-1323 3.5 04:16:53 10° SSW 04:19:43 33° SE 04:22:33 10° ENE
STARLINK-1349 3.5 04:17:10 10° SSW 04:20:01 33° SE 04:22:51 10° ENE
STARLINK-1336 3.5 04:17:29 10° SSW 04:20:19 33° SE 04:23:10 10° ENE
STARLINK-1331 3.5 04:17:52 10° SSW 04:20:43 33° SE 04:23:34 10° ENE
STARLINK-1344 3.4 04:18:10 10° SSW 04:21:01 34° SE 04:23:52 10° ENE
CZ-2C R/B 3.1 04:15:28 10° N 04:21:03 71° WNW 04:26:35 10° SSW
STARLINK-1343 3.4 04:18:32 10° SSW 04:21:23 34° SE 04:24:15 10° ENE
STARLINK-1346 3.4 04:18:49 10° SSW 04:21:40 34° SE 04:24:33 10° ENE
STARLINK-1328 3.4 04:19:15 10° SSW 04:22:06 35° SE 04:24:59 10° ENE
STARLINK-1354 3.4 04:19:32 10° SSW 04:22:24 35° SE 04:25:16 10° ENE
STARLINK-1373 4.3 04:19:00 10° S 04:22:28 29° SE 04:25:58 10° ENE
STARLINK-1347 3.4 04:19:48 10° SSW 04:22:40 35° SE 04:25:34 10° ENE
STARLINK-1357 3.4 04:20:14 10° SSW 04:23:07 36° SE 04:26:00 10° ENE
STARLINK-1106 3.8 04:19:00 10° NW 04:23:07 67° NE 04:25:59 19° ESE
STARLINK-1335 3.4 04:20:31 10° SSW 04:23:23 36° SE 04:26:17 10° ENE
STARLINK-1327 3.3 04:20:51 10° SSW 04:23:45 36° SE 04:26:38 10° ENE
STARLINK-1340 3.3 04:21:08 10° SSW 04:24:02 37° SE 04:26:56 10° ENE
STARLINK-1356 3.3 04:21:31 10° SSW 04:24:25 37° SE 04:27:19 10° ENE
STARLINK-1345 3.3 04:21:49 10° SSW 04:24:43 37° SE 04:27:38 10° ENE
STARLINK-1355 3.3 04:22:11 10° SSW 04:25:05 38° SE 04:28:00 10° ENE
STARLINK-1321 3.3 04:22:32 10° SSW 04:25:26 38° SE 04:28:21 10° ENE
STARLINK-1358 3.3 04:22:54 10° SSW 04:25:49 39° SE 04:28:44 10° ENE
STARLINK-1332 3.3 04:23:10 10° SSW 04:26:05 39° SE 04:29:02 10° ENE
STARLINK-1348 3.2 04:23:31 10° SSW 04:26:27 39° SE 04:29:23 10° ENE
Cosmos 1943 Rocket 2.1 04:20:57 10° SSW 04:26:27 79° ESE 04:32:04 10° NNE
STARLINK-1330 3.2 04:23:50 10° SSW 04:26:46 40° SE 04:29:42 10° ENE
STARLINK-1363 3.2 04:24:10 10° SSW 04:27:06 40° SE 04:30:03 10° ENE
STARLINK-1390 4.2 04:23:37 10° SSW 04:27:14 32° SE 04:30:51 10° ENE
STARLINK-1337 3.2 04:24:32 10° SSW 04:27:28 40° SE 04:30:26 10° ENE
STARLINK-1342 3.2 04:24:50 10° SSW 04:27:47 41° SE 04:30:45 10° ENE
STARLINK-1112 3.6 04:23:58 10° NW 04:28:07 74° NE 04:30:47 21° SE
STARLINK-1364 3.2 04:25:10 10° SSW 04:28:07 41° SE 04:31:05 10° ENE
STARLINK-1376 3.2 04:25:30 10° SSW 04:28:27 42° SE 04:31:25 10° ENE
STARLINK-1360 3.1 04:25:50 10° SSW 04:28:47 42° SE 04:31:46 10° ENE
STARLINK-1361 3.1 04:26:11 10° SSW 04:29:08 42° SE 04:32:07 10° ENE
STARLINK-1367 3.1 04:26:28 10° SSW 04:29:25 43° SE 04:32:24 10° ENE
STARLINK-1366 3.1 04:26:49 10° SSW 04:29:47 43° SE 04:32:46 10° ENE
ATLAS CENTAUR R/B 2.1 04:27:53 10° S 04:31:58 34° ESE 04:35:51 10° NE
STARLINK-1128 3.6 04:28:55 10° NW 04:33:05 82° NE 04:35:33 23° SE
Okean 2 4.2 04:31:08 21° SE 04:33:06 32° E 04:36:49 10° NNE
STARLINK-1365 4.0 04:29:26 10° SSW 04:33:11 37° SE 04:36:56 10° ENE
Okean 1 Rocket 3.2 04:29:36 10° N 04:33:59 60° E 04:36:53 20° SSE
Cosmos 1092 Rocket 4.3 04:31:25 15° SSE 04:36:12 45° E 04:41:59 10° NNE
Lacrosse 5 4.0 04:33:28 10° WNW 04:36:49 18° WSW 04:40:09 10° SSW
STARLINK-1113 3.5 04:33:55 10° NW 04:38:04 90° SSW 04:40:21 26° SE
ERS-1 Rocket 4.4 04:39:06 17° ESE 04:41:24 23° ENE 04:45:19 10° NNE
NOSS 3-4 (A) 3.5 04:35:58 10° S 04:41:38 51° ESE 04:47:31 10° NE
NOSS 3-4 (C) 3.5 04:36:04 10° S 04:41:44 51° ESE 04:47:37 10° NE
Cosmos 1766 4.1 04:38:08 10° NNE 04:41:50 35° E 04:43:16 26° ESE
STARLINK-1338 3.7 04:39:01 10° SSW 04:42:49 46° SE 04:46:38 10° ENE
STARLINK-1119 3.6 04:38:53 10° NW 04:43:02 81° SW 04:45:07 28° SE
OAO 1 4.5 04:39:34 10° W 04:45:03 73° S 04:49:00 19° ESE
Cosmos 1900 4.4 04:40:01 10° NNW 04:45:05 78° ENE 04:48:05 25° SE
Cosmos 1656 Rocket 4.2 04:41:39 18° SSE 04:45:10 37° ESE 04:50:15 10° NE
STARLINK-1114 3.6 04:43:53 10° NW 04:48:01 73° SW 04:49:55 31° SSE
STARLINK-1371 3.5 04:46:56 10° SSW 04:50:46 55° SE 04:54:38 10° NE
STARLINK-1130 (DARKSAT) 3.7 04:48:51 10° NW 04:52:57 65° SW 04:54:40 33° SSE
Cosmos 1378 3.2 04:50:39 16° SSW 04:53:33 75° W 04:57:15 10° N
Abrixas rocket 3.3 04:52:15 10° WNW 04:54:47 26° SW 04:55:10 25° SSW
STARLINK-1341 3.4 04:51:14 10° SW 04:55:07 61° SE 04:59:01 10° NE
STARLINK-1084 3.9 04:53:52 10° NW 04:57:56 58° SW 04:59:28 34° SSE
MetOp-B 4.1 04:55:06 23° SSE 04:58:29 85° ENE 05:03:52 10° NNW
Resurs 01 Rocket 2.3 04:55:44 16° S 04:59:05 51° W 05:03:25 10° NNW
STARLINK-1374 3.4 04:56:02 10° SW 04:59:59 68° SE 05:03:57 10° NE
USA 245 2.7 05:00:46 49° NE 05:00:46 49° NE 05:02:53 10° N
Cosmos 2082 Rocket 4.3 04:58:19 10° NW 05:02:31 21° W 05:06:41 10° SSW
STARLINK-1098 4.0 04:58:51 10° WNW 05:02:53 52° SW 05:04:14 35° S
Cosmos 2369 Rocket 2.4 04:57:33 10° SSW 05:03:12 73° WNW 05:08:51 10° NNE
STARLINK-1339 3.3 04:59:50 10° SW 05:03:45 74° SE 05:07:42 10° NE
STARLINK-1123 4.2 05:03:53 10° WNW 05:07:51 46° SW 05:09:02 35° S
SAR-Lupe-2 3.5 05:04:41 10° N 05:08:17 82° WNW 05:09:49 32° SSW
STARLINK-1377 3.4 05:04:43 10° SW 05:08:43 83° SE 05:12:43 10° NE
ATLAS 2AS CENTAUR R/B 3.0 05:01:17 10° SSW 05:09:11 87° ESE 05:17:14 10° NNE
BREEZE-M DEB (TANK) 3.9 04:55:02 10° SW 05:09:52 52° SE 05:14:22 10° ENE
STARLINK-1097 4.3 05:08:55 10° WNW 05:12:49 42° SW 05:13:49 35° SSW
STARLINK-1353 3.4 05:09:05 10° SW 05:13:04 89° NW 05:17:05 10° NE
Cosmos 1805 3.3 05:09:31 10° NNW 05:13:25 72° W 05:14:44 39° S
Cosmos 2026 Rocket 4.0 05:09:53 25° S 05:13:39 68° E 05:19:58 10° NNE
NOSS 3-2 (A) 4.1 05:07:06 10° NNW 05:14:58 88° WSW 05:19:52 29° SSE
SPOT 5 3.6 05:14:02 33° ESE 05:15:48 44° ENE 05:20:52 10° N
STARLINK-1375 3.5 05:13:29 10° SW 05:17:28 82° NW 05:21:29 10° NE
STARLINK-1099 4.5 05:13:55 10° WNW 05:17:45 37° SW 05:18:35 33° SSW
Terra 2.8 05:17:08 28° E 05:18:09 31° ENE 05:22:18 10° N
Cosmos 1470 3.9 05:16:42 10° NNE 05:19:53 28° ENE 05:19:53 28° ENE
Spot 2 Rocket 3.6 05:18:32 32° S 05:20:54 72° WSW 05:25:58 10° NNW
SL-27 R/B 2.2 05:17:39 10° NNW 05:21:11 86° ENE 05:21:22 79° SE
STARLINK-1350 3.6 05:17:51 10° SW 05:21:51 74° NW 05:25:51 10° NE
Cosmos 1733 3.0 05:18:23 10° N 05:22:11 88° WSW 05:22:45 63° S
STARLINK-1352 3.8 05:21:51 10° SW 05:25:49 68° NW 05:29:48 10° NE
Cosmos 1842 3.4 05:24:53 42° SSW 05:26:02 70° W 05:29:55 10° N
STARLINK-1217 4.5 05:23:21 10° NNW 05:26:13 28° NE 05:26:26 28° NE
STARLINK-1229 4.4 05:24:31 10° NNW 05:27:23 29° NE 05:27:33 28° NE
STARLINK-1270 4.4 05:25:07 10° NNW 05:27:56 28° NE 05:28:00 28° NE
Cosmos 1553 Rocket 4.5 05:23:51 10° N 05:29:43 43° ENE 05:31:23 35° ESE
USA 238 DEB 3.9 05:22:50 10° NW 05:30:06 73° WSW 05:33:40 34° SSE
CZ-4B DEB 4.3 05:30:17 80° NNW 05:30:17 80° NNW 05:33:29 10° NNW
USA 238 3.9 05:22:55 10° NW 05:30:12 73° WSW 05:33:47 34° SSE
STARLINK-1368 4.0 05:26:48 10° WSW 05:30:46 62° NW 05:34:44 10° NE
STARLINK-1189 4.4 05:28:08 10° NNW 05:31:05 31° NE 05:31:06 31° NE
STARLINK-1188 4.3 05:29:24 10° NNW 05:32:19 32° NE 05:32:19 32° NE
Cosmos 1025 Rocket 3.4 05:34:55 46° E 05:34:55 46° E 05:38:51 10° NNE
STARLINK-1191 4.3 05:32:02 10° NNW 05:34:47 33° NNE 05:34:47 33° NNE
STARLINK-1369 4.2 05:31:17 10° WSW 05:35:14 56° NW 05:39:12 10° NE
STARLINK-1221 4.3 05:32:28 10° NNW 05:35:05 32° NNE 05:35:05 32° NNE
STARLINK-1222 4.3 05:34:34 10° NNW 05:37:15 34° NNE 05:37:15 34° NNE
STARLINK-1214 4.3 05:35:10 10° NNW 05:37:47 34° NNE 05:37:47 34° NNE
Cosmos 1271 Rocket 2.6 05:38:26 77° ENE 05:38:26 77° ENE 05:42:18 10° NNE
Cosmos 1975 Rocket 4.0 05:36:22 23° SW 05:38:43 45° W 05:42:57 10° N
RESURS DK-1 3.8 05:41:49 26° ENE 05:41:49 26° ENE 05:44:00 10° NE
Cosmos 1503 Rocket 4.3 05:37:05 10° N 05:42:19 53° ENE 05:43:20 46° ESE
Cosmos 1242 Rocket 3.1 05:42:20 50° WSW 05:42:45 54° W 05:46:22 10° N
Cosmos 1174 4.3 05:46:16 42° WNW 05:46:31 43° WNW 05:49:54 10° NNE
Cosmos 1953 3.9 05:43:14 10° NNE 05:45:48 24° ENE 05:45:48 24° ENE
Cosmos 1707 3.1 05:51:02 58° NE 05:51:02 58° NE 05:54:16 10° NNE
Milstar 3 Cent rocket 4.0 05:46:18 10° WSW 05:54:33 55° SSE 06:12:27 10° E
Cosmos 1655 Rocket 4.0 05:53:44 50° SE 05:55:04 61° E 06:01:14 10° NNE
STARLINK-1209 4.1 05:51:36 10° NW 05:54:11 47° NW 05:54:11 47° NW
SPOT 1/Viking Rocket 4.2 05:53:38 35° SW 05:55:16 46° W 06:00:14 10° NNW
Cosmos 1486 Rocket 4.4 05:57:24 10° NNW 06:02:31 53° WSW 06:03:30 46° SW
COSMOS 2455 3.2 05:58:30 15° SW 06:03:28 62° WNW 06:09:27 10° NNE
CENTAUR R/B 3.2 05:55:20 10° NW 06:03:41 79° WSW 06:07:02 43° SSE
Cosmos 1354 Rocket 3.9 05:59:42 10° NNW 06:05:01 76° ENE 06:05:32 69° ESE
BREEZE-M DEB (TANK) 3.1 05:56:31 10° NW 06:05:25 87° SW 06:06:08 66° SE
Cosmos 1758 3.6 06:01:55 10° N 06:05:32 69° NNW 06:05:32 69° NNW
ATLAS CENTAUR R/B 3.8 06:07:24 10° WSW 06:10:54 23° NW 06:14:15 10° N
Cosmos 1455 Rocket 4.1 06:07:51 10° NNW 06:11:49 36° W 06:12:13 35° WSW
ATLAS 3B R/B 3.0 06:05:28 10° NNW 06:12:14 59° NE 06:14:17 43° ESE
H-2A ROCKET BODY 4.3 06:05:52 10° WSW 06:13:03 58° SSE 06:56:10 10° E
Cosmos 2297 Rocket 4.4 06:15:10 10° NNE 06:17:58 14° NE 06:20:07 11° ENE
ERS-1 Rocket 3.9 06:19:06 34° WSW 06:19:56 36° W 06:24:35 10° NNW
Meteor 2-19 Rocket 4.3 06:22:57 68° SSE 06:23:44 80° E 06:29:51 10° N
Cosmos 1833 4.5 06:22:50 10° NNW 06:28:18 54° WSW 06:28:45 52° SW
CZ-4C R/B 4.0 06:32:08 16° ENE 06:32:08 16° ENE 06:33:36 10° ENE
ATLAS 3B CENTAUR R/B 3.8 06:18:54 10° W 06:31:29 39° SSW 06:31:46 39° SSW
ATLAS 5 CENTAUR R/B 3.6 06:26:31 10° SW 06:32:59 34° WNW 06:35:40 10° N
Cosmos 2098 Rocket 4.3 06:34:27 58° SE 06:35:41 68° E 06:43:03 10° NNE
Cosmos 1726 3.8 06:39:30 10° NNW 06:41:42 33° NNW 06:41:42 33° NNW
Cosmos 1674 4.4 06:47:26 31° N 06:47:26 31° N 06:49:29 10° N
Meteor 1-16 Rocket 4.0 06:40:21 10° N 06:45:32 81° NW 06:45:32 81° NW
Cosmos 1867 4.4 06:43:30 10° NW 06:48:07 39° W 06:48:07 39° W
Meteor 2-15 4.2 06:43:13 10° N 06:49:21 86° E 06:49:38 82° SE
Timation 2 Rocket 3.9 06:48:07 10° NNW 06:54:17 67° ENE 06:54:34 66° E
Terra 3.5 06:56:01 24° W 06:56:01 24° W 06:59:42 10° NW
Cosmos 2227 Rocket 3.8 06:51:44 10° N 06:56:14 24° ENE 06:57:21 22° ENE
Cosmos 1777 Rocket 4.2 06:56:22 10° NNW 07:01:02 70° N 07:01:02 70° N
Nadezhda 2 Rocket 4.4 07:05:28 72° E 07:05:28 72° E 07:11:29 10° N
Exosat Rocket 4.2 06:57:39 10° NNW 07:05:26 63° WSW 07:05:51 62° SW
Cosmos 2315 Rocket 3.8 07:04:24 10° N 07:10:38 82° W 07:10:46 81° WSW
Cosmos 1626 4.4 07:13:31 22° NNE 07:13:31 22° NNE 07:14:56 10° NNE
Meteor 2-15 Rocket 4.3 07:05:46 10° N 07:11:54 79° W 07:11:57 79° W
Thor Agena Rocket 4.3 07:07:19 10° N 07:12:20 46° WNW 07:12:37 45° W
Cosmos 2058 Rocket 4.3 07:13:15 10° N 07:16:15 38° NNE 07:16:15 38° NNE
Meteor 2-5 Rocket 3.8 07:18:27 70° NW 07:18:27 70° NW 07:23:47 10° N
ALOS 2 3.8 07:21:32 41° N 07:21:32 41° N 07:24:30 10° N
SeaSat 1 2.9 07:22:03 10° NNE 07:26:25 56° NNW 07:26:25 56° NNW
Lacrosse 4 Rocket 3.6 07:29:38 10° N 07:32:26 19° NE 07:32:26 19° NE
Cosmos 1980 Rocket 3.8 07:38:49 24° ENE 07:38:49 24° ENE 07:41:58 10° NE
Cosmos 2369 4.2 07:49:44 52° ENE 07:49:44 52° ENE 07:54:14 10° NNE
Cosmos 1656 4.1 07:54:55 57° NW 07:54:55 57° NW 08:00:14 10° NNE
Cosmos 1898 Rocket 4.2 07:51:48 10° N 07:56:29 49° NE 07:56:29 49° NE
BREEZE-M DEB (TANK) 4.0 07:53:43 10° NW 08:03:57 12° ESE 08:04:35 10° ESE
Meteor 1-24 Rocket 4.5 07:57:56 41° WNW 07:57:56 41° WNW 08:02:48 10° N
Cosmos 1745 Rocket 3.9 08:00:03 82° NNE 08:00:03 82° NNE 08:05:57 10° N
ATLAS 3B R/B 4.1 07:57:02 10° WNW 08:01:31 25° W 08:01:31 25° W
Cosmos 2297 Rocket 2.4 07:57:04 10° NNW 08:01:54 66° NNW 08:01:54 66° NNW
Cosmos 990 Rocket 4.5 08:00:18 10° NNW 08:04:44 57° NNE 08:04:44 57° NNE
SJ 16-02 2.7 08:01:36 10° NNW 08:04:23 37° N 08:04:23 37° N
Cosmos 2219 3.7 08:01:37 10° NNW 08:06:04 51° WNW 08:06:04 51° WNW
Cosmos 2322 Rocket 4.5 08:16:57 12° E 08:16:57 12° E 08:18:35 10° ENE
CZ-4C R/B 3.0 08:17:16 39° WNW 08:17:32 39° NW 08:22:53 10° NNE
Cosmos 2082 4.0 08:11:56 10° NNW 08:17:21 61° NE 08:17:21 61° NE
Cosmos 841 Rocket 4.0 08:19:06 54° NE 08:19:06 54° NE 08:23:13 10° NNE
Cosmos 1697 Rocket 3.0 08:23:09 61° NW 08:23:09 61° NW 08:28:28 10° NNE
Cosmos 2278 3.8 08:25:35 72° NNE 08:25:35 72° NNE 08:30:39 10° NNE
Cosmos 1763 Rocket 4.2 08:25:58 46° NW 08:25:58 46° NW 08:30:10 10° N
Cosmos 1570 Rocket 4.3 08:26:55 64° N 08:26:55 64° N 08:31:24 10° NNE
Meteor 2-1 Rocket 4.3 08:22:32 10° N 08:27:29 71° NNW 08:27:29 71° NNW
Resurs 1-4 Rocket 4.0 08:25:34 10° NE 08:29:13 19° E 08:29:13 19° E
Cosmos-2242 4.3 08:35:39 10° N 08:38:32 37° NNE 08:38:32 37° NNE
Cosmos 2227 Rocket 3.1 08:35:05 10° NW 08:39:09 39° WNW 08:39:09 39° WNW
Cosmos 2181 Rocket 4.4 08:34:46 10° N 08:41:06 56° E 08:42:04 51° ESE
Cosmos 2208 Rocket 4.3 08:46:08 63° NNW 08:46:08 63° NNW 08:50:54 10° NNE
Cosmos 1709 Rocket 3.9 08:48:20 71° W 08:48:23 71° W 08:54:33 10° N
Gblst 52 Del rocket 4.3 08:51:33 86° SSW 08:51:42 88° SE 08:58:34 10° NE
SL-16 R/B 3.3 08:52:02 32° ESE 08:52:02 32° ESE 08:56:55 10° NE
USA 81 4.4 08:53:35 59° NW 08:53:35 59° NW 08:58:12 10° N
Helios 1B rocket 4.0 08:49:26 10° N 08:51:59 30° NNW 08:51:59 30° NNW
Cosmos 1455 4.3 08:53:02 10° NNW 08:54:35 23° NNW 08:54:35 23° NNW
SL-16 R/B 3.7 08:55:50 24° ESE 08:58:43 37° ENE 09:04:17 10° N
Cosmos 540 Rocket 4.0 09:00:09 48° NW 09:00:09 48° NW 09:04:41 10° N
Cosmos 489 Rocket 4.3 09:00:35 81° SSW 09:00:55 89° WNW 09:07:12 10° NNE
CZ-2D R/B 3.0 08:56:45 10° NNE 09:01:34 36° E 09:01:38 36° E
Meteor 2-10 Rocket 4.2 08:57:02 10° NNW 09:00:53 44° NW 09:00:53 44° NW
Lacrosse 4 Rocket 3.7 09:07:43 10° NW 09:08:43 16° NW 09:08:43 16° NW
Cosmos 2360 Rocket 3.9 09:12:49 19° ESE 09:13:50 20° E 09:17:48 10° NE
Cosmos 2285 Rocket 4.0 09:09:49 10° NNW 09:16:01 60° WSW 09:16:01 60° WSW
Cosmos 1980 Rocket 3.0 09:20:34 37° WNW 09:21:07 38° WNW 09:26:22 10° N
STARLINK-1302 4.5 09:23:53 48° NNE 09:23:53 48° NNE 09:27:02 10° NE
STARLINK-1299 4.5 09:24:11 50° N 09:24:11 50° N 09:27:43 10° NE
CZ-4B R/B 4.3 09:18:37 10° NNE 09:23:37 43° E 09:24:15 41° ESE
UNK 4.4 09:23:22 45° E 09:23:53 47° ENE 09:28:17 10° N
USA 215 3.1 09:24:21 33° SE 09:27:33 83° SW 09:34:08 10° NW
STARLINK-1273 4.4 09:28:39 50° N 09:28:39 50° N 09:31:59 10° NE
FALCON 9 R/B 3.3 09:30:16 44° WSW 09:32:27 59° S 09:52:29 10° ESE
AQUA 4.3 09:27:56 10° NNE 09:32:33 48° E 09:32:49 47° ESE
STARLINK-1288 4.4 09:33:26 50° N 09:33:26 50° N 09:36:56 10° NE
Meteor 1-11 4.4 09:35:21 54° W 09:35:37 55° WNW 09:41:06 10° N
Cosmos 2074 Rocket 3.9 09:34:50 62° SSW 09:35:54 78° W 09:42:12 10° N
ADEOS II 3.4 09:33:08 10° NE 09:37:43 30° E 09:39:20 25° SE
STARLINK-1308 4.4 09:38:15 48° NNW 09:38:15 48° NNW 09:41:56 10° NE
IRS-1D 4.4 09:33:52 10° NNE 09:38:46 39° E 09:39:54 35° SE
Cosmos 372 Rocket 4.3 09:35:56 10° NNW 09:40:21 51° WNW 09:40:21 51° WNW
Cosmos 2263 Rocket 2.3 09:36:29 10° NNW 09:42:05 72° ENE 09:44:02 41° SE
Cosmos 1400 Rocket 4.0 09:40:01 10° NNW 09:42:43 35° NW 09:42:43 35° NW
Cosmos 1076 Rocket 4.3 09:43:47 42° ESE 09:44:09 43° E 09:48:18 10° NNE
STARLINK-1304 4.5 09:47:48 42° NW 09:47:52 42° NW 09:51:49 10° NE
NPP 3.5 09:44:05 10° NNE 09:49:30 88° WNW 09:50:23 64° SSW
STARLINK-45 4.4 09:51:32 40° ENE 09:51:32 40° ENE 09:54:00 10° NE
Cosmos 1825 4.4 09:49:31 16° ESE 09:50:28 18° E 09:53:01 10° NE
Timation 1 Rocket 4.3 09:45:03 10° NNW 09:50:55 62° WSW 09:51:36 58° SW
STARLINK-76 4.3 09:54:33 41° ENE 09:54:33 41° ENE 09:57:07 10° NE
STARLINK-70 4.1 09:55:47 46° ENE 09:55:47 46° ENE 09:58:32 10° NE
STARLINK-23 4.2 09:56:07 43° ENE 09:56:07 43° ENE 09:58:45 10° NE
STARLINK-1007 4.4 09:55:44 41° ESE 09:55:44 41° ESE 09:59:08 10° ENE
STARLINK-32 4.3 09:56:35 40° ENE 09:56:35 40° ENE 09:59:02 10° NE
Cosmos 2150 Rocket 4.1 09:51:16 10° NNW 09:56:04 53° W 09:56:04 53° W
Iridium 2 3.9 09:54:19 10° N 09:57:34 64° N 09:57:34 64° N
STARLINK-40 4.0 09:59:15 48° ENE 09:59:15 48° ENE 10:02:01 10° NE
Cosmos 2322 Rocket 2.1 09:58:45 57° SW 09:59:54 78° WNW 10:05:32 10° NNE
STARLINK-44 3.9 10:00:45 51° ENE 10:00:45 51° ENE 10:03:36 10° NE
STARLINK-1048 4.2 10:00:30 48° ESE 10:00:30 48° ESE 10:04:08 10° ENE
In-Cosmos 22 Rocket 4.1 09:59:55 50° S 10:01:26 81° E 10:06:57 10° N
Cosmos 2184 Rocket 4.3 10:00:20 43° WSW 10:01:32 49° W 10:07:29 10° N
STARLINK-37 3.8 10:02:29 56° ENE 10:02:29 56° ENE 10:05:26 10° NE
STARLINK-36 3.8 10:03:53 57° ENE 10:03:53 57° ENE 10:06:51 10° NE
STARLINK-1049 3.9 10:05:17 55° ESE 10:05:17 55° ESE 10:09:09 10° NE
STARLINK-63 3.6 10:06:49 62° NE 10:06:49 62° NE 10:09:52 10° NE
STARLINK-35 3.7 10:07:18 57° NE 10:07:18 57° NE 10:10:10 10° NE
Cosmos 1125 Rocket 3.4 10:03:45 10° NNW 10:08:56 70° WSW 10:09:58 54° SSW
Resurs 1-4 Rocket 2.5 10:04:12 10° N 10:09:17 48° WNW 10:10:18 42° WSW
STARLINK-51 3.5 10:09:52 67° NE 10:09:52 67° NE 10:13:00 10° NE
Cosmos 1610 Rocket 4.5 10:07:45 46° SW 10:09:28 65° W 10:15:37 10° N
STARLINK-1051 3.7 10:10:03 62° SE 10:10:03 62° SE 10:14:08 10° NE
STARLINK-30 3.4 10:11:46 71° NNE 10:11:46 71° NNE 10:15:03 10° NE
STARLINK-72 3.5 10:11:55 65° NE 10:11:55 65° NE 10:14:57 10° NE
CZ-4C R/B 4.3 10:12:51 38° WNW 10:12:51 38° WNW 10:16:26 10° NNW
STARLINK-59 3.4 10:15:07 66° N 10:15:07 66° N 10:18:18 10° NE
USA 229 DEB 3.8 10:10:01 10° NW 10:17:25 83° WSW 10:25:06 10° SSE
USA 229 3.8 10:10:07 10° NNW 10:17:31 83° WSW 10:25:14 10° SSE
STARLINK-56 3.3 10:18:00 72° NNW 10:18:00 72° NNW 10:21:33 10° NE
NOSS 3-1 (C) 4.1 10:10:20 10° NW 10:18:13 76° WSW 10:27:03 10° SSE
STARLINK-73 3.3 10:19:34 69° NW 10:19:34 69° NW 10:23:10 10° NE
STARLINK-1028 3.4 10:19:37 70° S 10:19:58 77° SE 10:24:07 10° NE
Cosmos 1315 Rocket 3.1 10:16:14 10° NNW 10:19:45 51° WNW 10:19:45 51° WNW
Cosmos 2221 2.6 10:15:56 10° NNW 10:20:12 54° W 10:20:23 53° WSW
GEOS 3 Rocket 4.2 10:15:10 10° SE 10:20:13 58° NE 10:25:23 10° NNW
STARLINK-38 3.3 10:21:08 66° NW 10:21:11 66° NW 10:24:48 10° NE
STARLINK-65 3.4 10:22:43 63° NW 10:22:49 64° NW 10:26:26 10° NE
STARLINK-68 3.5 10:23:36 56° NW 10:23:46 57° NW 10:27:19 10° NE
STARLINK-53 3.5 10:24:20 56° WNW 10:24:32 58° NW 10:28:07 10° NE
STARLINK-1021 3.4 10:24:25 66° SW 10:24:58 86° SE 10:29:07 10° NE
NOSS 3-1 (A) 4.2 10:18:44 10° NNW 10:26:37 84° ENE 10:35:30 10° SSE
Cosmos 2237 4.1 10:24:34 40° SSW 10:26:43 86° WNW 10:32:29 10° NNE
Cosmos 2058 3.2 10:28:01 46° W 10:28:23 48° W 10:32:28 10° N
Cosmos 1842 Rocket 4.4 10:24:58 10° NNW 10:28:55 34° W 10:28:55 34° W
STARLINK-1010 3.6 10:28:13 57° WSW 10:29:02 83° NW 10:33:17 10° NE
STARLINK-1019 3.5 10:29:10 59° SW 10:29:55 86° NW 10:34:04 10° NE
STARLINK-50 3.6 10:29:28 52° W 10:30:00 60° NW 10:33:46 10° NE
Cosmos 962 Rocket 4.4 10:28:05 35° SSW 10:30:52 76° W 10:37:05 10° N
IRIDIUM 104 4.4 10:30:03 41° SSW 10:31:42 62° W 10:36:52 10° N
IRS-P3 4.0 10:28:29 10° NNE 10:33:50 87° WNW 10:36:16 34° SSW
Cosmos 773 Rocket 4.0 10:31:41 37° SSW 10:33:50 85° ESE 10:39:09 10° NNE
STARLINK-1012 3.6 10:33:58 52° WSW 10:34:54 78° NW 10:39:03 10° NE
SL-16 R/B 3.3 10:33:54 25° W 10:35:57 32° WNW 10:41:01 10° N
Cosmos 1844 Rocket 4.0 10:31:07 10° N 10:36:24 41° ENE 10:41:36 10° SE
STARLINK-71 4.1 10:37:48 37° W 10:38:57 50° NW 10:42:53 10° NE
STARLINK-25 4.0 10:39:55 35° WNW 10:40:36 40° NW 10:43:54 10° NE
COSMOS 2428 4.0 10:37:00 14° SSE 10:41:10 35° ESE 10:46:15 10° NE
CZ-2D R/B 3.4 10:37:14 10° NNW 10:41:22 24° WNW 10:42:57 21° W
SL-16 R/B 3.3 10:40:55 29° WSW 10:42:17 32° W 10:47:43 10° NW
STARLINK-1026 3.8 10:43:31 39° WSW 10:44:50 63° NW 10:48:58 10° NE
ERS-2 3.5 10:43:17 10° SE 10:46:41 38° ENE 10:50:07 10° N
STARLINK-1013 3.9 10:48:19 34° WSW 10:49:51 57° NW 10:53:57 10° NE
Cosmos 1892 4.1 10:51:50 23° W 10:52:03 23° WNW 10:55:07 10° NNW
Cosmos 1606 4.2 10:48:44 10° NNE 10:52:14 35° E 10:55:43 10° SSE
SL-4 R/B 2.2 10:48:00 10° NW 10:52:47 75° SW 10:57:18 10° SE
STARLINK-1009 4.1 10:53:05 30° W 10:54:50 52° NW 10:58:53 10° NE
SL-24 DEB 4.1 10:52:34 10° N 10:57:11 89° W 11:00:14 21° S
Cosmos 2360 Rocket 2.6 10:54:35 27° SW 10:57:23 49° WNW 11:02:50 10° N
STARLINK-1015 4.2 10:57:52 26° W 10:59:49 47° NW 11:03:50 10° NE
BREEZE-M DEB (TANK) 3.7 10:59:07 23° SSW 11:02:22 48° SSE 11:05:29 10° ENE
CZ-2C R/B 3.5 11:00:08 10° NNE 11:03:50 49° E 11:06:58 14° S
STARLINK-1016 4.4 11:02:39 23° W 11:04:49 43° NW 11:08:47 10° NE
Cosmos 2366 rocket 4.0 11:01:02 18° SSW 11:05:48 77° W 11:12:07 10° N
STARLINK-52 3.4 11:03:24 10° NW 11:06:35 62° NE 11:09:45 10° ESE
Cosmos 1408 Rocket 3.9 11:05:44 13° S 11:09:28 63° E 11:13:44 10° NNE
CZ-2D R/B 3.5 11:06:15 10° N 11:10:34 79° WNW 11:13:37 19° SSW
USA 215 4.5 11:11:36 18° WSW 11:11:36 18° WSW 11:15:20 10° W
Cosmos 2333 Rocket 2.3 11:07:43 18° SSW 11:12:00 80° ESE 11:17:41 10° NNE
STARLINK-1024 4.4 11:09:47 21° SSW 11:12:07 42° SE 11:16:03 10° ENE
Cosmos 2219 Rocket 2.2 11:10:16 17° SSW 11:14:40 78° ESE 11:20:16 10° NNE
Cosmos 1408 4.2 11:15:30 18° W 11:16:19 19° WNW 11:19:01 10° NNW
STARLINK-1035 4.2 11:14:35 20° SSW 11:17:06 47° SE 11:21:05 10° ENE
Cosmos 2322 3.8 11:13:15 20° SW 11:17:12 64° WNW 11:22:54 10° NNE
ADEOS II 3.1 11:12:47 10° N 11:17:18 30° WNW 11:20:17 18° WSW
Lacrosse 5 rocket 1.4 11:15:51 22° SSW 11:18:23 64° SE 11:22:16 10° NE
IDEFIX/ARIANE 42P 2.6 11:15:11 10° NNE 11:20:28 89° ESE 11:25:29 11° SSW
STARLINK-1032 4.1 11:19:20 20° SSW 11:22:01 53° SE 11:26:04 10° NE
Cosmos 2151 3.9 11:20:03 21° SW 11:22:06 31° WNW 11:25:57 10° NNW
ARIANE 5 R/B 3.0 11:18:56 10° N 11:23:37 42° WNW 11:27:04 17° SW
Cosmos 1151 Rocket 3.0 11:19:36 10° N 11:24:01 88° E 11:28:23 10° S
ATLAS 5 CENTAUR R/B 2.4 11:20:51 12° S 11:24:15 40° ESE 11:28:18 10° NE
STARLINK-1037 3.9 11:22:13 19° SSW 11:24:59 58° SE 11:29:03 10° NE
Cosmos 2263 Rocket 3.9 11:22:53 10° WNW 11:25:15 13° W 11:25:39 13° WSW
Cosmos 1825 3.5 11:24:20 19° WSW 11:25:46 23° WNW 11:28:49 10° NNW
H-2A R/B 2.1 11:21:44 10° S 11:26:08 80° WSW 11:30:39 10° NNW
Cosmos 2333 4.4 11:22:36 18° SW 11:26:40 56° WNW 11:32:12 10° NNE
STARLINK-1011 3.9 11:24:08 18° SSW 11:27:00 59° SE 11:31:05 10° NE
Cosmos 1766 Rocket 4.0 11:24:54 18° SW 11:27:42 42° W 11:31:49 10° N
Shenzhou-11 Module 3.6 11:28:50 10° NW 11:31:00 27° NNE 11:33:10 10° ENE
Okean 3 Rocket 4.5 11:29:06 17° SW 11:31:55 33° WNW 11:36:04 10° NNW
STARLINK-1036 3.8 11:28:55 17° SW 11:31:58 67° SE 11:36:04 10° NE
CZ-4C R/B 3.0 11:30:23 10° S 11:34:00 71° WSW 11:37:38 10° NNW
STARLINK-60 4.3 11:31:43 10° W 11:34:05 19° SW 11:36:25 10° S
Cosmos 1680 Rocket 4.0 11:29:35 10° S 11:34:45 63° ESE 11:39:59 10° NNE
Cosmos 1727 Rocket 3.9 11:29:52 10° N 11:36:03 78° W 11:42:11 10° S
STARLINK-1044 3.7 11:33:42 16° SW 11:36:56 74° SE 11:41:04 10° NE
Cosmos 1515 Rocket 3.9 11:33:04 10° N 11:37:24 68° E 11:41:42 10° SSE
Cosmos 1346 Rocket 3.8 11:35:54 10° SSE 11:39:43 46° E 11:43:32 10° NNE
Cosmos 923 Rocket 4.0 11:36:04 10° SSW 11:41:15 84° WNW 11:46:29 10° NNE
FALCON 9 DEB 3.2 11:37:48 10° NW 11:41:15 84° NE 11:44:43 10° SE
Cosmos 1844 3.7 11:35:35 10° NNW 11:41:21 70° WSW 11:47:04 10° SSE
STARLINK-1047 3.6 11:38:29 15° SW 11:41:55 83° SE 11:46:04 10° NE
Centaur D-1AR AC-40 3.7 11:42:24 10° S 11:44:09 12° SSE 11:46:29 10° SE
Cosmos 2322 Rocket 4.4 11:43:28 10° WNW 11:44:52 11° NW 11:46:17 10° NW
Cosmos 1980 4.5 11:40:57 10° S 11:46:24 51° ESE 11:51:52 10° NNE
Cosmos 1340 2.6 11:43:36 10° S 11:47:21 80° W 11:51:08 10° N
Meteor 2-3 Rocket 3.8 11:41:54 10° SSW 11:47:26 63° W 11:52:59 10° N
STARLINK-1059 3.6 11:48:02 12° SW 11:51:51 81° NW 11:56:00 10° NE
BREEZE-M DEB (TANK) 3.7 11:56:46 10° WSW 11:57:55 12° SSW 11:59:34 10° S
